Probability
0 0 0 0 0 0 0 0 0 0 0 3 3 3 3 3 3 3 3 3 3 3 3 0 0 0 0 0 0 0 0 0 0 0 0 0 0 0 0 0 0 0 0
0 0 0 0 0 0 0 0 0 0 0 0 0 0 3 3 3 3 3 3 3 3 3 3 3 0 0 0 0 0 0 0 0 0 0 0 0 0 0 0 0 0 0
0 0 0 0 0 0 0 0 0 0 0 0 0 0 0 0 0 0 0 0 0 3 3 3 3 3 0 0 0 0 0 0 0 0 0 0 0 0 0 0 0 0 0
0 0 0 0 0 0 0 0 0 0 3 0 0 0 0 0 0 0 0 0 0 0 0 0 0 3 3 3 0 0 0 0 0 0 0 0 0 0 0 0 0 0 0
0 0 0 0 0 0 0 0 0 0 0 0 0 0 0 0 0 0 0 0 0 0 0 0 0 0 0 0 0 0 0 0 0 0 0 0 0 0 0 0 0 0 0
0 0 0 0 0 0 0 0 0 0 0 0 0 0 0 0 0 0 0 0 0 0 0 0 0 0 0 0 0 0 0 0 0 0 0 0 0 0 0 0 0 0 0
0 0 0 0 0 0 0 0 0 0 0 0 0 0 0 0 0 0 0 0 0 0 0 0 0 0 0 0 0 0 0 0 0 0 0 0 0 0 0 0 0 0 0
0 0 0 0 0 0 0 0 0 0 0 0 0 0 0 0 0 0 0 0 0 0 0 0 0 0 0 0 0 0 0 0 0 0 0 0 0 0 0 0 0 0 0
0 0 0 0 0 0 0 0 0 0 0 0 0 0 0 0 0 0 0 0 0 0 0 0 0 0 0 0 0 3 3 3 3 3 3 3 0 0 0 0 0 0 0
0 0 0 0 0 0 0 0 0 0 0 0 0 0 0 0 0 0 0 0 0 0 0 0 0 0 0 0 0 0 3 3 3 3 3 3 3 0 0 0 0 0 0
0 0 0 0 0 0 0 0 0 0 0 0 0 0 0 0 0 0 0 0 0 0 0 0 0 0 0 0 0 0 0 3 3 3 3 3 0 0 0 0 0 0 0
0 0 0 0 0 0 0 0 0 0 0 0 0 0 0 0 0 0 0 0 0 0 0 0 0 0 0 0 0 0 0 0 3 3 3 0 0 0 0 0 0 0 0
0 0 0 0 0 0 0 0 0 0 0 0 0 0 0 0 0 0 0 0 0 0 0 0 0 0 0 0 0 0 0 0 0 0 0 0 0 0 0 0 0 0 0
0 0 0 0 0 0 0 0 0 0 0 0 0 0 0 0 0 0 0 0 0 0 0 0 0 0 0 0 0 0 0 0 0 0 0 0 0 0 0 0 0 0 0
0 0 0 0 0 0 0 0 0 0 0 0 0 0 0 0 0 0 0 0 0 0 0 0 0 0 0 0 0 0 0 0 0 0 0 0 0 0 0 0 0 0 0
0 0 0 0 0 0 0 0 0 0 0 0 0 0 0 0 0 0 0 0 0 0 0 0 0 0 0 0 0 0 0 0 0 0 0 0 0 0 0 0 0 0 0
0 0 0 0 0 0 0 0 0 0 0 0 0 0 0 0 0 0 0 0 0 0 0 0 0 0 0 0 0 0 0 0 0 0 0 0 0 0 0 0 0 0 0
0 0 0 0 0 0 0 0 0 0 0 0 0 0 0 0 0 0 0 0 0 0 0 0 0 0 0 0 0 0 0 0 0 0 0 0 0 0 0 0 0 0 0
0 0 0 0 0 0 0 0 0 0 0 0 0 0 0 0 0 0 0 0 0 0 0 0 0 0 0 0 0 0 0 0 0 0 0 0 0 0 0 0 0 0 0
0 0 0 0 0 0 0 0 0 0 0 0 0 0 0 0 0 0 0 0 0 0 0 0 0 0 0 0 0 0 0 0 0 0 0 0 0 0 0 0 0 0 0
0 0 0 0 0 0 0 0 0 0 0 0 0 0 0 0 0 0 0 0 0 0 0 0 0 0 0 0 0 0 0 0 0 0 0 0 0 0 0 0 0 0 0
0 0 0 0 0 0 0 0 0 0 0 0 0 0 0 0 0 0 0 0 0 0 0 0 0 0 0 0 0 0 0 0 0 0 0 0 0 0 0 0 0 0 0
0 0 0 0 0 0 0 0 0 0 0 0 0 0 0 0 0 0 0 0 0 0 0 0 0 0 0 0 0 0 0 0 0 0 0 0 0 0 0 0 0 0 0
0 0 0 0 0 0 0 0 0 0 0 0 0 0 0 0 0 0 0 0 0 0 0 0 0 0 0 0 0 0 0 0 0 0 0 0 0 0 0 0 0 0 0
0 0 0 0 0 0 0 0 0 0 0 0 0 0 0 0 0 0 0 0 0 0 0 0 0 0 0 0 0 0 0 0 0 0 0 0 0 0 0 0 0 0 0
0 0 0 0 0 0 0 0 0 0 0 0 0 0 0 0 0 0 0 0 0 0 0 0 0 0 0 0 0 0 0 0 0 0 0 0 0 0 0 0 0 0 0
Height
5645 5652 5661 5669 5678 5686 5694 5703 5711 5718 5725 5732 5737 5742 5748 5754 5759 5763 5768 5772 5777 5781 5785 5788 5791 5794 5796 5798 5800 5802 5803 5804 5805 5806 5806 5807 5807 5807 5807 5807 5807 5806 5805
5641 5648 5657 5665 5672 5680 5688 5697 5704 5712 5718 5724 5731 5736 5742 5747 5751 5756 5760 5765 5769 5773 5777 5780 5783 5786 5788 5790 5792 5793 5795 5796 5797 5797 5798 5798 5800 5800 5799 5799 5799 5798 5797
5638 5645 5653 5660 5667 5675 5683 5691 5698 5706 5712 5718 5724 5729 5734 5739 5743 5748 5752 5757 5761 5764 5768 5771 5774 5777 5779 5781 5783 5784 5785 5787 5788 5788 5789 5790 5791 5792 5792 5791 5790 5789 5789
5637 5644 5651 5657 5664 5672 5680 5687 5694 5700 5706 5712 5717 5723 5728 5733 5737 5741 5745 5749 5753 5757 5760 5763 5766 5768 5770 5772 5773 5775 5776 5778 5779 5779 5780 5781 5781 5782 5783 5783 5781 5780 5780
5637 5643 5649 5656 5662 5669 5677 5683 5689 5695 5700 5706 5711 5716 5721 5726 5730 5733 5737 5741 5745 5748 5751 5753 5756 5759 5761 5763 5764 5766 5767 5768 5769 5770 5770 5771 5772 5772 5773 5773 5773 5772 5770
5637 5643 5649 5655 5660 5666 5673 5679 5685 5690 5695 5700 5705 5710 5715 5719 5723 5726 5729 5733 5736 5739 5742 5744 5747 5749 5751 5753 5755 5756 5757 5758 5759 5760 5761 5761 5762 5762 5762 5763 5763 5762 5762
5639 5643 5648 5653 5658 5664 5670 5676 5681 5685 5690 5695 5700 5704 5709 5712 5716 5719 5721 5725 5727 5730 5733 5735 5737 5739 5741 5742 5744 5746 5747 5747 5749 5750 5751 5751 5751 5752 5752 5752 5752 5752 5752
5640 5644 5647 5651 5657 5662 5667 5673 5677 5682 5686 5690 5694 5699 5702 5706 5709 5712 5714 5717 5719 5721 5723 5725 5727 5729 5730 5732 5733 5735 5736 5737 5738 5739 5740 5740 5741 5741 5742 5742 5742 5742 5742
5641 5644 5648 5652 5656 5661 5666 5670 5674 5678 5682 5686 5689 5693 5696 5699 5702 5704 5706 5708 5710 5712 5714 5716 5717 5719 5720 5721 5723 5724 5725 5726 5727 5727 5728 5729 5730 5731 5731 5731 5731 5731 5731
5642 5645 5648 5652 5656 5660 5664 5668 5672 5675 5679 5682 5685 5687 5690 5692 5694 5696 5698 5699 5701 5702 5704 5705 5706 5707 5708 5709 5711 5712 5714 5715 5716 5716 5717 5718 5719 5719 5719 5719 5719 5719 5719
5643 5646 5649 5652 5655 5659 5662 5666 5669 5672 5674 5676 5679 5681 5683 5685 5687 5688 5689 5690 5691 5692 5693 5694 5695 5696 5697 5698 5699 5700 5701 5703 5704 5705 5706 5706 5707 5707 5708 5708 5707 5708 5707
5644 5647 5649 5652 5654 5657 5660 5663 5665 5667 5669 5671 5672 5674 5675 5677 5677 5678 5679 5681 5681 5682 5682 5682 5684 5685 5685 5686 5687 5688 5689 5690 5691 5692 5693 5694 5694 5694 5695 5695 5695 5695 5695
5645 5647 5649 5651 5653 5655 5658 5660 5662 5663 5664 5665 5666 5667 5667 5668 5668 5669 5670 5670 5670 5671 5671 5672 5672 5672 5673 5673 5674 5675 5676 5677 5678 5679 5680 5681 5681 5682 5682 5682 5683 5683 5682
5645 5646 5648 5649 5651 5653 5655 5656 5657 5658 5658 5659 5659 5659 5659 5659 5659 5659 5659 5659 5659 5659 5660 5659 5659 5660 5660 5660 5661 5661 5662 5663 5664 5665 5666 5667 5668 5668 5669 5669 5670 5670 5670
5645 5646 5647 5648 5649 5650 5651 5652 5653 5652 5652 5652 5652 5651 5650 5649 5649 5648 5648 5647 5647 5647 5646 5646 5646 5646 5646 5646 5647 5648 5649 5649 5650 5651 5652 5653 5654 5655 5656 5657 5657 5657 5657
5645 5646 5646 5647 5647 5648 5648 5647 5647 5647 5646 5645 5643 5642 5640 5639 5638 5637 5635 5634 5634 5633 5632 5632 5632 5632 5632 5632 5633 5634 5635 5635 5636 5637 5638 5639 5640 5641 5642 5643 5644 5645 5645
5644 5644 5644 5644 5644 5643 5643 5642 5641 5640 5638 5636 5634 5632 5630 5628 5626 5624 5622 5621 5620 5619 5618 5618 5617 5618 5618 5618 5618 5619 5620 5621 5622 5623 5625 5626 5627 5628 5629 5630 5631 5632 5633
5641 5641 5640 5640 5639 5638 5636 5635 5633 5631 5629 5626 5623 5621 5618 5616 5613 5610 5608 5606 5605 5604 5603 5602 5602 5602 5602 5602 5603 5604 5605 5606 5608 5609 5611 5612 5614 5615 5616 5617 5619 5619 5620
5638 5637 5636 5635 5633 5631 5629 5626 5624 5621 5618 5615 5611 5608 5604 5601 5598 5595 5592 5590 5589 5587 5586 5586 5585 5585 5586 5586 5587 5588 5590 5591 5593 5594 5596 5598 5600 5601 5603 5605 5606 5607 5608
5634 5632 5631 5629 5626 5624 5620 5617 5614 5610 5606 5603 5599 5594 5591 5587 5583 5580 5577 5574 5572 5570 5569 5569 5568 5568 5569 5570 5571 5572 5574 5576 5578 5580 5582 5584 5586 5587 5589 5591 5593 5594 5595
5629 5627 5624 5622 5619 5616 5612 5608 5604 5599 5595 5590 5586 5581 5577 5572 5568 5565 5562 5558 5556 5554 5553 5552 5552 5551 5552 5553 5555 5557 5559 5561 5563 5565 5568 5570 5572 5574 5576 5578 5580 5581 5583
5624 5622 5619 5616 5612 5608 5604 5599 5594 5589 5584 5579 5574 5568 5564 5559 5555 5551 5547 5544 5541 5538 5536 5534 5534 5534 5535 5537 5539 5541 5543 5545 5548 5551 5553 5556 5558 5560 5562 5564 5567 5568 5570
5619 5616 5612 5608 5604 5600 5595 5590 5585 5579 5574 5568 5562 5557 5551 5546 5541 5537 5533 5529 5525 5521 5519 5518 5518 5518 5520 5521 5523 5526 5529 5531 5534 5536 5539 5541 5544 5547 5549 5551 5553 5556 5557
5613 5609 5605 5601 5596 5591 5586 5581 5575 5569 5563 5557 5551 5545 5540 5534 5528 5523 5518 5514 5510 5506 5504 5502 5502 5503 5504 5506 5508 5511 5514 5516 5519 5522 5525 5527 5530 5533 5536 5538 5541 5543 5545
5607 5603 5598 5594 5588 5582 5577 5571 5565 5558 5552 5546 5540 5534 5527 5521 5516 5510 5505 5499 5495 5491 5489 5488 5487 5487 5489 5491 5493 5495 5499 5501 5504 5507 5510 5514 5517 5520 5523 5526 5528 5530 5532
5600 5596 5591 5585 5579 5573 5567 5560 5554 5547 5540 5534 5527 5520 5514 5508 5502 5496 5491 5485 5481 5477 5474 5472 5472 5472 5474 5476 5478 5481 5484 5487 5490 5493 5497 5501 5504 5507 5510 5513 5515 5518 5520
Wind_Speed
37 38 40 42 44 46 47 49 51 49 48 49 47 47 46 46 47 47 47 46 46 45 43 42 41 40 39 38 37 37 36 36 36 36 36 36 35 35 35 35 36 36 36
34 35 36 39 42 42 43 44 45 46 46 46 45 46 45 44 45 47 46 46 46 45 45 44 44 43 41 41 40 39 39 38 38 38 38 37 36 36 37 38 38 38 37
30 30 31 35 36 39 38 38 39 39 40 42 42 44 46 44 43 44 44 45 46 45 44 43 43 44 43 41 41 41 41 41 41 40 40 39 39 39 39 39 39 39 39
25 27 29 30 31 35 34 34 33 33 35 36 37 40 42 42 42 43 44 45 45 45 44 43 43 44 44 42 42 42 43 43 43 42 41 41 41 40 40 40 39 39 39
21 25 25 25 27 30 30 32 31 30 31 34 34 36 38 39 39 41 43 45 45 45 45 46 46 46 45 44 43 44 45 44 44 43 43 42 41 41 41 41 41 41 41
16 19 20 20 23 26 26 26 29 27 27 31 33 35 36 36 38 40 41 42 43 45 45 44 45 46 46 46 46 45 45 44 43 43 42 43 43 43 43 42 41 40 40
12 13 15 17 21 24 24 25 26 26 27 31 32 34 35 35 37 37 38 40 41 43 45 45 45 46 47 47 47 46 46 45 44 45 45 44 44 43 43 42 40 40 39
11 10 12 16 19 21 23 23 24 25 26 28 31 34 34 34 36 37 37 38 40 42 44 45 45 45 45 45 45 45 45 46 45 45 46 46 43 42 42 42 41 40 40
7 7 9 13 16 18 19 20 21 22 24 25 28 32 33 34 35 36 36 38 41 41 42 43 45 44 43 44 44 45 46 46 45 45 45 45 44 43 43 43 43 42 41
5 5 6 9 12 13 15 17 18 18 19 22 25 28 30 34 36 37 39 38 39 41 42 43 43 43 44 44 45 46 46 47 46 46 45 45 45 44 44 44 44 43 43
4 3 5 6 8 11 13 14 17 19 20 22 25 26 28 30 34 36 37 37 38 40 41 42 42 43 44 46 46 45 46 46 46 47 48 47 45 45 45 45 45 45 45
5 5 5 7 8 11 13 14 15 17 19 22 24 26 26 28 30 32 34 36 37 39 40 42 43 43 44 45 46 47 47 47 47 47 47 46 46 46 46 46 46 46 46
3 3 5 6 8 10 12 13 15 17 19 21 23 25 27 28 29 31 33 35 36 38 40 42 44 44 45 46 47 47 47 47 47 47 47 47 47 47 46 46 47 47 47
2 2 3 5 7 9 11 13 15 17 19 21 24 26 28 30 32 33 34 35 36 37 39 41 42 43 44 45 46 47 47 47 47 48 47 47 48 47 46 46 47 47 46
1 2 4 6 7 9 12 14 16 18 20 23 25 27 30 32 33 34 36 38 39 40 41 42 43 44 45 45 47 47 48 48 47 47 47 48 48 48 47 46 46 45 44
2 3 5 8 11 13 15 17 19 21 24 27 29 31 32 34 36 37 38 40 41 42 43 44 44 44 44 45 46 46 48 48 47 48 48 48 48 48 48 46 45 44 43
5 7 9 11 14 16 18 21 23 26 28 31 33 35 36 38 40 41 42 42 43 44 45 45 45 46 46 46 46 47 47 47 46 46 47 48 47 47 47 46 45 45 44
9 11 13 15 17 19 21 24 27 30 32 35 37 38 40 42 43 44 45 46 47 47 47 46 47 47 47 47 47 48 48 48 47 47 47 48 48 48 47 46 46 45 45
12 13 15 17 20 22 24 27 30 33 35 37 39 41 42 44 44 45 46 47 47 47 47 47 47 48 48 49 49 48 48 48 48 48 48 48 48 48 47 47 46 45 44
14 16 19 21 23 25 28 30 33 35 37 39 41 42 43 44 45 45 46 47 47 48 48 48 48 49 49 49 49 49 48 48 48 48 48 48 48 47 46 46 45 44 44
18 20 22 25 27 28 31 33 35 37 39 40 42 43 44 45 45 46 46 46 46 47 48 47 47 48 48 48 48 48 47 47 47 46 46 46 47 46 45 45 44 43 42
19 21 24 26 28 31 33 35 37 38 39 41 43 43 44 45 45 45 45 46 47 47 47 46 45 45 45 46 46 47 47 46 45 45 46 46 46 45 45 44 44 43 43
21 24 26 29 31 33 35 36 37 38 40 42 43 43 44 45 46 46 46 47 47 47 47 46 45 44 44 45 46 46 46 45 44 45 45 45 45 45 45 44 43 42 41
25 27 30 32 34 36 37 39 40 41 42 43 44 44 45 46 47 47 48 47 47 47 47 46 45 45 45 45 46 46 45 45 45 45 44 44 43 43 43 43 42 41 41
27 29 32 35 37 38 39 41 42 43 44 44 45 46 47 48 48 48 48 48 47 47 47 45 45 44 43 43 45 45 45 44 44 45 44 44 43 43 42 41 41 41 40
29 32 35 37 39 40 41 42 44 45 45 47 48 49 49 50 50 50 49 48 47 46 45 44 43 42 41 41 42 43 44 45 45 44 44 43 42 42 42 41 40 40 39
Wind_Direction
215 215 215 217 217 218 219 219 220 222 222 222 223 223 226 228 229 230 231 233 235 237 240 244 246 248 250 252 254 255 256 259 261 263 265 268 269 271 273 275 276 278 280
213 211 213 214 214 215 216 218 220 221 222 222 223 224 226 229 231 232 232 234 237 239 241 244 246 248 250 253 254 255 258 260 261 263 266 268 269 271 273 275 276 278 280
208 207 210 211 213 214 213 216 216 222 224 225 225 225 225 227 229 230 233 236 238 240 241 244 248 249 251 253 255 256 258 259 260 263 266 267 268 270 272 274 276 277 280
206 203 205 209 211 212 212 214 215 220 222 222 225 226 226 228 233 234 236 237 239 241 242 245 248 250 252 253 255 258 258 260 262 264 265 267 270 271 272 274 275 277 279
208 208 209 212 212 210 210 213 214 218 222 222 224 228 231 233 235 236 238 239 241 243 245 247 248 250 251 253 255 257 259 261 263 264 265 268 270 271 272 273 275 276 278
202 207 208 213 215 211 213 215 218 223 225 225 227 230 232 234 236 239 240 242 245 246 247 248 250 251 252 253 256 259 260 262 263 265 266 267 270 271 272 274 274 276 277
199 203 209 215 213 212 214 216 220 223 226 227 230 231 232 235 239 241 242 244 247 249 250 251 252 253 255 256 258 259 262 264 265 265 266 269 271 271 272 273 274 275 277
199 208 213 212 212 214 217 222 224 227 229 231 232 234 238 240 244 244 245 247 249 252 254 255 255 257 258 258 260 260 261 264 266 266 267 270 271 271 272 272 273 275 277
202 204 202 206 210 214 221 227 231 233 235 239 238 240 242 244 247 248 250 253 255 257 258 259 258 259 260 261 262 261 261 263 264 266 267 268 269 270 270 271 272 275 278
163 187 198 210 215 224 230 233 240 242 244 244 244 246 249 249 252 252 255 257 257 258 260 260 261 261 263 264 264 263 262 262 262 264 267 269 269 267 269 273 274 276 277
157 183 203 225 232 236 239 244 251 252 252 252 252 254 255 256 258 257 257 258 258 259 259 260 261 262 264 264 264 263 262 262 263 265 267 267 266 267 269 272 274 275 276
175 202 219 232 244 250 250 255 257 257 256 257 259 259 262 263 264 263 261 261 262 261 262 261 262 262 263 263 263 262 262 263 264 265 264 264 265 267 268 269 271 272 274
198 226 230 240 254 258 259 263 264 267 268 267 267 268 270 270 270 268 265 265 266 264 263 263 263 262 263 262 262 262 262 262 263 264 262 263 264 265 266 267 269 271 274
225 260 275 278 274 275 277 279 280 282 281 278 276 277 277 276 275 272 269 269 269 267 266 266 265 265 264 263 262 261 261 261 262 262 262 262 263 265 266 267 269 271 272
258 289 298 296 293 289 286 285 285 288 287 285 283 282 282 280 279 276 273 272 271 270 269 268 266 266 265 263 262 261 261 261 261 260 261 262 264 264 265 268 269 270 271
285 293 289 292 293 292 291 291 291 290 290 288 287 286 284 281 280 278 275 274 273 272 271 269 267 267 266 264 263 262 262 262 261 261 261 262 264 264 266 268 269 270 271
285 290 296 296 295 294 293 294 294 294 292 291 289 287 286 284 283 281 278 277 275 274 273 272 271 269 268 266 264 263 262 263 263 262 262 263 264 264 266 267 267 269 270
294 296 300 302 302 299 297 296 295 294 292 291 289 287 286 285 283 281 280 279 277 275 273 272 271 269 266 264 263 263 263 263 263 262 262 262 263 264 265 265 266 268 270
301 302 303 304 304 303 302 300 298 297 294 293 291 289 288 286 285 283 281 279 277 274 272 271 270 267 265 262 261 260 261 262 262 261 261 262 262 263 264 265 266 267 268
309 309 307 306 306 306 306 304 303 301 298 296 295 293 291 290 288 286 284 282 280 277 274 273 269 267 264 262 260 259 260 261 261 261 262 261 261 262 263 264 265 266 267
312 312 311 310 310 309 309 308 307 305 303 301 299 297 295 293 291 289 287 286 283 279 277 275 272 268 264 261 259 259 259 260 260 260 260 260 261 262 262 262 263 264 266
317 316 315 314 314 313 313 312 311 309 306 304 302 300 298 296 294 292 289 288 286 283 279 277 273 269 264 261 259 258 258 258 258 257 257 258 259 260 261 261 262 263 264
321 320 319 318 317 316 316 315 314 312 310 308 305 303 301 299 297 295 293 291 289 286 282 278 273 268 264 262 260 259 259 258 257 255 256 257 258 258 259 260 261 262 263
322 321 320 319 318 317 316 315 313 311 309 307 306 304 303 300 299 297 295 293 290 287 283 279 275 270 266 262 260 258 257 256 255 255 254 255 255 256 258 258 259 261 262
321 320 320 319 318 317 315 314 312 310 308 307 305 304 302 301 299 298 297 293 290 288 284 279 275 271 266 262 258 256 255 254 254 253 254 254 254 255 256 258 259 259 260
320 320 320 319 318 316 315 314 312 311 309 307 306 304 302 301 301 300 297 294 291 288 284 280 275 270 265 260 257 255 254 253 253 252 252 253 253 254 255 257 258 258 258